Location: Treviso
(45.6669°N, 12.2430°E)
Time: 21:35:38
(UTC+02:00)

ITAMSAT 1 - Visible Passes

Search period start: 15 October 2019 00:00
Search period end: 25 October 2019 00:00
Orbit: 784 x 797 km, 98.9° (Epoch: 14 October)

Date Brightness Start Highest point End Pass type
(mag) Time Alt. Az. Time Alt. Az. Time Alt. Az.
15 Oct 9.7 05:50:47 10° NE 05:55:20 29° E 05:59:51 10° SSE visible
15 Oct 10.7 18:51:54 10° SW 18:55:37 20° W 18:59:23 10° NW visible
16 Oct 10.6 05:22:20 10° NE 05:25:35 16° E 05:28:50 10° SE visible
17 Oct 8.2 06:30:55 10° NNE 06:36:08 66° ESE 06:41:19 10° S visible
18 Oct 9.3 06:01:45 10° NNE 06:06:34 36° E 06:11:22 10° SSE visible
18 Oct 10.9 19:03:47 10° SW 19:06:55 16° W 19:10:04 10° NW visible
19 Oct 10.3 05:33:02 10° NE 05:36:53 20° E 05:40:43 10° SE visible
20 Oct 11.0 05:05:47 10° ENE 05:07:03 11° E 05:08:20 10° E visible
20 Oct 7.8 06:42:02 10° NNE 06:47:18 81° ESE 06:52:33 10° SSW visible
21 Oct 8.9 06:12:46 10° NNE 06:17:47 45° E 06:22:47 10° S visible
21 Oct 11.1 19:15:59 10° WSW 19:18:14 13° W 19:20:29 10° WNW visible
22 Oct 10.0 05:43:51 10° NE 05:48:09 25° E 05:52:26 10° SSE visible
22 Oct 10.5 18:44:20 10° SW 18:48:26 23° W 18:52:34 10° NW visible
23 Oct 10.8 05:15:43 10° ENE 05:18:23 14° E 05:21:02 10° ESE visible
23 Oct 7.7 06:53:12 10° NNE 06:58:28 82° WNW 07:03:42 10° SSW visible
24 Oct 8.5 06:23:51 10° NNE 06:29:00 56° E 06:34:08 10° S visible
